Location: Newark
(27.9675°N, 86.8869°E)
Time: 08:38:46
(UTC+00:00)

Courier 1B Rocket - Pass Details

Date: 21 October 2019
Orbit: 920 x 1202 km, 28.2° (Epoch: 21 November)

Event Time Altitude Azimuth Distance (km) Brightness Sun altitude
Rises 00:34:07 0° 278° (W) 3,553 7.2 3.1°
Reaches altitude 10° 00:36:41 10° 277° (W) 2,621 6.6 3.6°
Maximum altitude 00:42:58 78° 192° (SSW) 974 5.2 5.0°
Drops below altitude 10° 00:49:36 10° 106° (ESE) 2,757 10.8 6.4°
Sets 00:52:22 0° 105° (ESE) 3,749 10.8 7.0°
